contact:dominique.lefevre@mio.osupytheas.fr, maurice.libes@osupytheas.fr, didier.mallarino@osupytheas.fr
Project:EMSO http://www.emso-fr.org/EMSO-France
Depth: 2436.0 m
Title:EMSO Ligure Ouest : Data MII capteur OXYGEN
DateTime,Latitude,Longitude,Optode-Type,Optode_Serial,Oxygen,Saturation_Oxygen,Temperature
DateTime,Latitude,Longitude,Optode-Type,Optode_Serial,µmol.l-1,%,degC
2017-12-08T00:00:43,42.805,6.029,4330,1995,196.451,60.075,13.286
2017-12-08T00:03:43,42.805,6.029,4330,1995,196.507,60.092,13.286
2017-12-08T00:06:43,42.805,6.029,4330,1995,196.496,60.089,13.286
2017-12-08T00:09:43,42.805,6.029,4330,1995,196.577,60.113,13.286
2017-12-08T00:12:43,42.805,6.029,4330,1995,196.684,60.146,13.286
2017-12-08T00:15:43,42.805,6.029,4330,1995,196.821,60.187,13.286
2017-12-08T00:18:43,42.805,6.029,4330,1995,196.745,60.165,13.286
2017-12-08T00:21:43,42.805,6.029,4330,1995,196.648,60.135,13.286
2017-12-08T00:24:43,42.805,6.029,4330,1995,196.612,60.124,13.286
2017-12-08T00:27:43,42.805,6.029,4330,1995,196.599,60.120,13.286
2017-12-08T00:30:43,42.805,6.029,4330,1995,196.628,60.129,13.286
2017-12-08T00:33:43,42.805,6.029,4330,1995,196.734,60.161,13.286
2017-12-08T00:36:43,42.805,6.029,4330,1995,196.684,60.146,13.286
2017-12-08T00:39:43,42.805,6.029,4330,1995,196.837,60.192,13.285
2017-12-08T00:42:43,42.805,6.029,4330,1995,196.942,60.224,13.286
2017-12-08T00:45:43,42.805,6.029,4330,1995,196.860,60.199,13.286
2017-12-08T00:48:43,42.805,6.029,4330,1995,196.938,60.223,13.285
2017-12-08T00:51:43,42.805,6.029,4330,1995,196.883,60.207,13.286
2017-12-08T00:54:43,42.805,6.029,4330,1995,196.977,60.235,13.286
2017-12-08T00:57:43,42.805,6.029,4330,1995,197.121,60.279,13.285
2017-12-08T01:00:43,42.805,6.029,4330,1995,197.204,60.304,13.285
2017-12-08T01:03:43,42.805,6.029,4330,1995,197.242,60.316,13.286
2017-12-08T01:06:43,42.805,6.029,4330,1995,197.237,60.314,13.285
2017-12-08T01:09:43,42.805,6.029,4330,1995,197.262,60.322,13.285
2017-12-08T01:12:43,42.805,6.029,4330,1995,197.439,60.376,13.285
2017-12-08T01:15:43,42.805,6.029,4330,1995,197.490,60.391,13.285
2017-12-08T01:18:43,42.805,6.029,4330,1995,197.585,60.420,13.285
2017-12-08T01:21:43,42.805,6.029,4330,1995,197.637,60.437,13.285
2017-12-08T01:24:43,42.805,6.029,4330,1995,197.640,60.437,13.285
2017-12-08T01:27:43,42.805,6.029,4330,1995,197.721,60.462,13.285
2017-12-08T01:30:43,42.805,6.029,4330,1995,197.717,60.461,13.285
2017-12-08T01:33:43,42.805,6.029,4330,1995,197.725,60.463,13.285
2017-12-08T01:36:43,42.805,6.029,4330,1995,197.746,60.470,13.285
2017-12-08T01:39:43,42.805,6.029,4330,1995,197.671,60.447,13.285
2017-12-08T01:42:43,42.805,6.029,4330,1995,197.680,60.450,13.285
2017-12-08T01:45:43,42.805,6.029,4330,1995,197.674,60.448,13.285
2017-12-08T01:48:43,42.805,6.029,4330,1995,197.681,60.450,13.285
2017-12-08T01:51:43,42.805,6.029,4330,1995,197.656,60.442,13.285
2017-12-08T01:54:43,42.805,6.029,4330,1995,197.635,60.436,13.285
2017-12-08T01:57:43,42.805,6.029,4330,1995,197.652,60.441,13.285
2017-12-08T02:00:43,42.805,6.029,4330,1995,197.576,60.418,13.286
2017-12-08T02:03:43,42.805,6.029,4330,1995,197.522,60.402,13.285
2017-12-08T02:06:43,42.805,6.029,4330,1995,197.527,60.403,13.285
2017-12-08T02:09:43,42.805,6.029,4330,1995,197.451,60.380,13.285
2017-12-08T02:12:43,42.805,6.029,4330,1995,197.436,60.375,13.285
2017-12-08T02:15:43,42.805,6.029,4330,1995,197.340,60.346,13.285
2017-12-08T02:18:43,42.805,6.029,4330,1995,197.241,60.316,13.285
2017-12-08T02:21:43,42.805,6.029,4330,1995,197.248,60.318,13.285
2017-12-08T02:24:43,42.805,6.029,4330,1995,197.223,60.310,13.285
2017-12-08T02:27:43,42.805,6.029,4330,1995,197.191,60.300,13.285
2017-12-08T02:30:43,42.805,6.029,4330,1995,197.218,60.308,13.285
2017-12-08T02:33:43,42.805,6.029,4330,1995,197.198,60.302,13.285
2017-12-08T02:36:43,42.805,6.029,4330,1995,197.223,60.310,13.285
2017-12-08T02:39:43,42.805,6.029,4330,1995,197.265,60.323,13.285
2017-12-08T02:42:43,42.805,6.029,4330,1995,197.269,60.324,13.285
2017-12-08T02:45:43,42.805,6.029,4330,1995,197.154,60.289,13.285
2017-12-08T02:48:42,42.805,6.029,4330,1995,197.094,60.271,13.285
2017-12-08T02:51:42,42.805,6.029,4330,1995,197.057,60.259,13.285
2017-12-08T02:54:42,42.805,6.029,4330,1995,196.974,60.234,13.285
2017-12-08T02:57:42,42.805,6.029,4330,1995,196.975,60.234,13.285
2017-12-08T03:00:42,42.805,6.029,4330,1995,196.923,60.218,13.285
2017-12-08T03:03:42,42.805,6.029,4330,1995,196.826,60.189,13.285
2017-12-08T03:06:42,42.805,6.029,4330,1995,196.856,60.198,13.285
2017-12-08T03:09:42,42.805,6.029,4330,1995,196.761,60.169,13.286
2017-12-08T03:12:42,42.805,6.029,4330,1995,196.613,60.124,13.286
2017-12-08T03:15:42,42.805,6.029,4330,1995,196.742,60.163,13.286
2017-12-08T03:18:42,42.805,6.029,4330,1995,196.598,60.119,13.286
2017-12-08T03:21:42,42.805,6.029,4330,1995,196.645,60.133,13.286
2017-12-08T03:24:42,42.805,6.029,4330,1995,196.606,60.122,13.286
2017-12-08T03:27:42,42.805,6.029,4330,1995,196.603,60.121,13.286
2017-12-08T03:30:42,42.805,6.029,4330,1995,196.512,60.093,13.285
2017-12-08T03:33:42,42.805,6.029,4330,1995,196.650,60.135,13.285
2017-12-08T03:36:42,42.805,6.029,4330,1995,196.680,60.144,13.286
2017-12-08T03:39:42,42.805,6.029,4330,1995,196.587,60.116,13.286
2017-12-08T03:42:42,42.805,6.029,4330,1995,196.604,60.121,13.286
2017-12-08T03:45:42,42.805,6.029,4330,1995,196.607,60.122,13.286
2017-12-08T03:48:42,42.805,6.029,4330,1995,196.576,60.112,13.286
2017-12-08T03:51:42,42.805,6.029,4330,1995,196.602,60.121,13.286
2017-12-08T03:54:42,42.805,6.029,4330,1995,196.507,60.092,13.286
2017-12-08T03:57:42,42.805,6.029,4330,1995,196.630,60.129,13.286
2017-12-08T04:00:42,42.805,6.029,4330,1995,196.539,60.101,13.286
2017-12-08T04:03:42,42.805,6.029,4330,1995,196.500,60.089,13.286
2017-12-08T04:06:42,42.805,6.029,4330,1995,196.492,60.087,13.286
2017-12-08T04:09:42,42.805,6.029,4330,1995,196.368,60.049,13.286
2017-12-08T04:12:42,42.805,6.029,4330,1995,196.362,60.047,13.286
2017-12-08T04:15:42,42.805,6.029,4330,1995,196.238,60.009,13.286
2017-12-08T04:18:42,42.805,6.029,4330,1995,196.338,60.040,13.286
2017-12-08T04:21:42,42.805,6.029,4330,1995,196.344,60.042,13.286
2017-12-08T04:24:42,42.805,6.029,4330,1995,196.324,60.036,13.286
2017-12-08T04:27:42,42.805,6.029,4330,1995,196.278,60.022,13.286
2017-12-08T04:30:42,42.805,6.029,4330,1995,196.221,60.004,13.286
2017-12-08T04:33:42,42.805,6.029,4330,1995,196.184,59.993,13.286
2017-12-08T04:36:42,42.805,6.029,4330,1995,196.154,59.984,13.286
2017-12-08T04:39:42,42.805,6.029,4330,1995,196.201,59.998,13.286
2017-12-08T04:42:42,42.805,6.029,4330,1995,196.248,60.013,13.286
2017-12-08T04:45:42,42.805,6.029,4330,1995,196.269,60.019,13.286
2017-12-08T04:48:42,42.805,6.029,4330,1995,196.028,59.946,13.286
2017-12-08T04:51:42,42.805,6.029,4330,1995,196.095,59.966,13.286
2017-12-08T04:54:42,42.805,6.029,4330,1995,196.099,59.968,13.286
2017-12-08T04:57:42,42.805,6.029,4330,1995,195.897,59.906,13.286
2017-12-08T05:00:42,42.805,6.029,4330,1995,195.914,59.911,13.287
2017-12-08T05:03:42,42.805,6.029,4330,1995,195.812,59.880,13.286
2017-12-08T05:06:42,42.805,6.029,4330,1995,195.843,59.889,13.286
2017-12-08T05:09:42,42.805,6.029,4330,1995,195.893,59.905,13.287
2017-12-08T05:12:42,42.805,6.029,4330,1995,195.783,59.872,13.287
2017-12-08T05:15:42,42.805,6.029,4330,1995,195.655,59.834,13.288
2017-12-08T05:18:42,42.805,6.029,4330,1995,195.561,59.806,13.289
2017-12-08T05:21:42,42.805,6.029,4330,1995,195.489,59.784,13.288
2017-12-08T05:24:42,42.805,6.029,4330,1995,195.406,59.759,13.289
2017-12-08T05:27:42,42.805,6.029,4330,1995,195.224,59.702,13.288
2017-12-08T05:30:42,42.805,6.029,4330,1995,194.999,59.633,13.288
2017-12-08T05:33:42,42.805,6.029,4330,1995,195.048,59.648,13.288
2017-12-08T05:36:42,42.805,6.029,4330,1995,195.212,59.699,13.288
2017-12-08T05:39:42,42.805,6.029,4330,1995,195.184,59.691,13.289
2017-12-08T05:42:42,42.805,6.029,4330,1995,195.509,59.790,13.288
2017-12-08T05:45:42,42.805,6.029,4330,1995,195.639,59.830,13.289
2017-12-08T05:48:42,42.805,6.029,4330,1995,195.698,59.847,13.288
2017-12-08T05:51:42,42.805,6.029,4330,1995,195.777,59.871,13.288
2017-12-08T05:54:42,42.805,6.029,4330,1995,195.803,59.879,13.288
2017-12-08T05:57:42,42.805,6.029,4330,1995,195.732,59.858,13.288
2017-12-08T06:00:42,42.805,6.029,4330,1995,195.530,59.795,13.288
2017-12-08T06:03:42,42.805,6.029,4330,1995,195.456,59.773,13.288
2017-12-08T06:06:42,42.805,6.029,4330,1995,195.415,59.760,13.287
2017-12-08T06:09:42,42.805,6.029,4330,1995,195.365,59.745,13.288
2017-12-08T06:12:42,42.805,6.029,4330,1995,195.312,59.729,13.288
2017-12-08T06:15:42,42.805,6.029,4330,1995,195.362,59.744,13.288
2017-12-08T06:18:42,42.805,6.029,4330,1995,195.373,59.749,13.289
2017-12-08T06:21:42,42.805,6.029,4330,1995,195.415,59.761,13.288
2017-12-08T06:24:42,42.805,6.029,4330,1995,195.362,59.744,13.288
2017-12-08T06:27:42,42.805,6.029,4330,1995,195.203,59.697,13.289
2017-12-08T06:30:42,42.805,6.029,4330,1995,194.998,59.638,13.291
2017-12-08T06:33:42,42.805,6.029,4330,1995,194.905,59.607,13.290
2017-12-08T06:36:42,42.805,6.029,4330,1995,194.761,59.561,13.289
2017-12-08T06:39:42,42.805,6.029,4330,1995,194.766,59.566,13.291
2017-12-08T06:42:42,42.805,6.029,4330,1995,194.685,59.538,13.288
2017-12-08T06:45:42,42.805,6.029,4330,1995,194.734,59.556,13.291
2017-12-08T06:48:42,42.805,6.029,4330,1995,194.841,59.587,13.290
2017-12-08T06:51:42,42.805,6.029,4330,1995,194.658,59.530,13.288
2017-12-08T06:54:42,42.805,6.029,4330,1995,194.783,59.568,13.288
2017-12-08T06:57:42,42.805,6.029,4330,1995,194.855,59.591,13.289
2017-12-08T07:00:42,42.805,6.029,4330,1995,194.883,59.601,13.290
2017-12-08T07:03:42,42.805,6.029,4330,1995,195.040,59.649,13.290
2017-12-08T07:06:42,42.805,6.029,4330,1995,195.016,59.640,13.289
2017-12-08T07:09:42,42.805,6.029,4330,1995,194.872,59.595,13.288
2017-12-08T07:12:42,42.805,6.029,4330,1995,194.772,59.565,13.288
2017-12-08T07:15:42,42.805,6.029,4330,1995,194.758,59.562,13.289
2017-12-08T07:18:42,42.805,6.029,4330,1995,194.605,59.514,13.289
2017-12-08T07:21:42,42.805,6.029,4330,1995,194.478,59.474,13.288
2017-12-08T07:24:42,42.805,6.029,4330,1995,194.623,59.518,13.288
2017-12-08T07:27:42,42.805,6.029,4330,1995,194.739,59.555,13.289
2017-12-08T07:30:42,42.805,6.029,4330,1995,194.500,59.482,13.289
2017-12-08T07:33:42,42.805,6.029,4330,1995,194.762,59.561,13.288
2017-12-08T07:36:42,42.805,6.029,4330,1995,194.871,59.595,13.288
2017-12-08T07:39:42,42.805,6.029,4330,1995,194.791,59.570,13.288
2017-12-08T07:42:42,42.805,6.029,4330,1995,194.744,59.556,13.288
2017-12-08T07:45:42,42.805,6.029,4330,1995,194.923,59.611,13.289
2017-12-08T07:48:42,42.805,6.029,4330,1995,195.036,59.646,13.289
2017-12-08T07:51:42,42.805,6.029,4330,1995,194.878,59.597,13.289
2017-12-08T07:54:42,42.805,6.029,4330,1995,194.954,59.621,13.289
2017-12-08T07:57:42,42.805,6.029,4330,1995,195.012,59.637,13.288
2017-12-08T08:00:42,42.805,6.029,4330,1995,194.933,59.612,13.287
2017-12-08T08:03:42,42.805,6.029,4330,1995,195.175,59.687,13.288
2017-12-08T08:06:42,42.805,6.029,4330,1995,195.235,59.705,13.288
2017-12-08T08:09:42,42.805,6.029,4330,1995,195.227,59.701,13.287
2017-12-08T08:12:42,42.805,6.029,4330,1995,195.292,59.723,13.288
2017-12-08T08:15:42,42.805,6.029,4330,1995,195.291,59.722,13.288
2017-12-08T08:18:42,42.805,6.029,4330,1995,195.291,59.724,13.289
2017-12-08T08:21:42,42.805,6.029,4330,1995,195.328,59.733,13.287
2017-12-08T08:24:42,42.805,6.029,4330,1995,195.454,59.771,13.287
2017-12-08T08:27:42,42.805,6.029,4330,1995,195.648,59.830,13.287
2017-12-08T08:30:42,42.805,6.029,4330,1995,195.787,59.872,13.286
2017-12-08T08:33:42,42.805,6.029,4330,1995,195.856,59.894,13.287
2017-12-08T08:36:42,42.805,6.029,4330,1995,195.865,59.896,13.287
2017-12-08T08:39:42,42.805,6.029,4330,1995,195.897,59.906,13.286
2017-12-08T08:42:42,42.805,6.029,4330,1995,195.920,59.915,13.288
2017-12-08T08:45:42,42.805,6.029,4330,1995,195.915,59.912,13.287
2017-12-08T08:48:42,42.805,6.029,4330,1995,196.023,59.945,13.287
2017-12-08T08:51:42,42.805,6.029,4330,1995,196.061,59.956,13.287
2017-12-08T08:54:42,42.805,6.029,4330,1995,195.943,59.920,13.286
2017-12-08T08:57:42,42.805,6.029,4330,1995,196.045,59.952,13.287
2017-12-08T09:00:42,42.805,6.029,4330,1995,196.301,60.031,13.287
2017-12-08T09:03:42,42.805,6.029,4330,1995,196.509,60.093,13.286
2017-12-08T09:06:42,42.805,6.029,4330,1995,196.483,60.084,13.286
2017-12-08T09:09:42,42.805,6.029,4330,1995,196.554,60.106,13.286
2017-12-08T09:12:42,42.805,6.029,4330,1995,196.294,60.027,13.286
2017-12-08T09:15:42,42.805,6.029,4330,1995,196.201,60.000,13.287
2017-12-08T09:18:42,42.805,6.029,4330,1995,196.289,60.026,13.287
2017-12-08T09:21:42,42.805,6.029,4330,1995,196.295,60.029,13.287
2017-12-08T09:24:42,42.805,6.029,4330,1995,196.335,60.040,13.287
2017-12-08T09:27:42,42.805,6.029,4330,1995,196.228,60.008,13.287
2017-12-08T09:30:42,42.805,6.029,4330,1995,196.219,60.004,13.286
2017-12-08T09:33:42,42.805,6.029,4330,1995,196.114,59.972,13.287
2017-12-08T09:36:42,42.805,6.029,4330,1995,196.163,59.989,13.287
2017-12-08T09:39:42,42.805,6.029,4330,1995,196.166,59.988,13.286
2017-12-08T09:42:42,42.805,6.029,4330,1995,196.242,60.011,13.286
2017-12-08T09:45:42,42.805,6.029,4330,1995,196.120,59.975,13.287
2017-12-08T09:48:42,42.805,6.029,4330,1995,195.954,59.924,13.287
2017-12-08T09:51:42,42.805,6.029,4330,1995,196.017,59.943,13.287
2017-12-08T09:54:42,42.805,6.029,4330,1995,196.180,59.993,13.287
2017-12-08T09:57:42,42.805,6.029,4330,1995,196.072,59.959,13.286
2017-12-08T10:00:42,42.805,6.029,4330,1995,196.060,59.956,13.287
2017-12-08T10:03:42,42.805,6.029,4330,1995,195.991,59.935,13.287
2017-12-08T10:06:42,42.805,6.029,4330,1995,195.911,59.911,13.287
2017-12-08T10:09:42,42.805,6.029,4330,1995,196.025,59.945,13.286
2017-12-08T10:12:42,42.805,6.029,4330,1995,195.986,59.933,13.287
2017-12-08T10:15:42,42.805,6.029,4330,1995,196.005,59.940,13.287
2017-12-08T10:18:42,42.805,6.029,4330,1995,195.869,59.898,13.287
2017-12-08T10:21:42,42.805,6.029,4330,1995,195.902,59.908,13.287
2017-12-08T10:24:42,42.805,6.029,4330,1995,195.987,59.934,13.287
2017-12-08T10:27:42,42.805,6.029,4330,1995,196.061,59.956,13.287
2017-12-08T10:30:42,42.805,6.029,4330,1995,196.133,59.979,13.287
2017-12-08T10:33:42,42.805,6.029,4330,1995,196.011,59.942,13.287
2017-12-08T10:36:42,42.805,6.029,4330,1995,196.047,59.952,13.287
2017-12-08T10:39:42,42.805,6.029,4330,1995,196.118,59.975,13.287
2017-12-08T10:42:42,42.805,6.029,4330,1995,196.171,59.989,13.286
2017-12-08T10:45:42,42.805,6.029,4330,1995,196.210,60.002,13.287
2017-12-08T10:48:42,42.805,6.029,4330,1995,196.224,60.007,13.287
2017-12-08T10:51:42,42.805,6.029,4330,1995,196.228,60.007,13.287
2017-12-08T10:54:42,42.805,6.029,4330,1995,196.258,60.016,13.286
2017-12-08T10:57:42,42.805,6.029,4330,1995,196.217,60.004,13.287
2017-12-08T11:00:42,42.805,6.029,4330,1995,196.149,59.984,13.287
2017-12-08T11:03:42,42.805,6.029,4330,1995,196.201,59.998,13.286
2017-12-08T11:06:42,42.805,6.029,4330,1995,196.201,59.998,13.286
2017-12-08T11:09:42,42.805,6.029,4330,1995,196.342,60.042,13.286
2017-12-08T11:12:42,42.805,6.029,4330,1995,196.151,59.984,13.287
2017-12-08T11:15:42,42.805,6.029,4330,1995,196.139,59.980,13.287
2017-12-08T11:18:42,42.805,6.029,4330,1995,196.198,59.998,13.287
2017-12-08T11:21:42,42.805,6.029,4330,1995,196.172,59.990,13.286
2017-12-08T11:24:42,42.805,6.029,4330,1995,196.113,59.972,13.287
2017-12-08T11:27:42,42.805,6.029,4330,1995,196.079,59.961,13.286
2017-12-08T11:30:42,42.805,6.029,4330,1995,196.171,59.989,13.286
2017-12-08T11:33:42,42.805,6.029,4330,1995,196.242,60.011,13.286
2017-12-08T11:36:42,42.805,6.029,4330,1995,196.223,60.006,13.287
2017-12-08T11:39:42,42.805,6.029,4330,1995,196.295,60.027,13.286
2017-12-08T11:42:42,42.805,6.029,4330,1995,196.233,60.009,13.286
2017-12-08T11:45:42,42.805,6.029,4330,1995,196.180,59.992,13.286
2017-12-08T11:48:42,42.805,6.029,4330,1995,196.141,59.980,13.286
2017-12-08T11:51:42,42.805,6.029,4330,1995,196.116,59.973,13.286
2017-12-08T11:54:42,42.805,6.029,4330,1995,196.159,59.986,13.287
2017-12-08T11:57:42,42.805,6.029,4330,1995,196.140,59.980,13.286
2017-12-08T12:00:42,42.805,6.029,4330,1995,196.160,59.986,13.286
2017-12-08T12:03:42,42.805,6.029,4330,1995,196.118,59.974,13.286
2017-12-08T12:06:42,42.805,6.029,4330,1995,196.300,60.029,13.286
2017-12-08T12:09:42,42.805,6.029,4330,1995,196.273,60.021,13.286
2017-12-08T12:12:42,42.805,6.029,4330,1995,196.184,59.994,13.287
2017-12-08T12:15:42,42.805,6.029,4330,1995,196.436,60.071,13.286
2017-12-08T12:18:42,42.805,6.029,4330,1995,196.468,60.080,13.286
2017-12-08T12:21:42,42.805,6.029,4330,1995,196.451,60.075,13.286
2017-12-08T12:24:42,42.805,6.029,4330,1995,196.229,60.007,13.286
2017-12-08T12:27:42,42.805,6.029,4330,1995,196.215,60.003,13.286
2017-12-08T12:30:42,42.805,6.029,4330,1995,196.309,60.032,13.286
2017-12-08T12:33:42,42.805,6.029,4330,1995,196.237,60.009,13.286
2017-12-08T12:36:42,42.805,6.029,4330,1995,196.332,60.038,13.286
2017-12-08T12:39:42,42.805,6.029,4330,1995,196.258,60.015,13.286
2017-12-08T12:42:42,42.805,6.029,4330,1995,196.176,59.990,13.286
2017-12-08T12:45:42,42.805,6.029,4330,1995,196.387,60.055,13.286
2017-12-08T12:48:42,42.805,6.029,4330,1995,196.341,60.041,13.286
2017-12-08T12:51:42,42.805,6.029,4330,1995,196.299,60.029,13.286
2017-12-08T12:54:42,42.805,6.029,4330,1995,196.366,60.048,13.286
2017-12-08T12:57:42,42.805,6.029,4330,1995,196.242,60.010,13.286
2017-12-08T13:00:42,42.805,6.029,4330,1995,196.338,60.040,13.286
2017-12-08T13:03:42,42.805,6.029,4330,1995,196.250,60.013,13.286
2017-12-08T13:06:42,42.805,6.029,4330,1995,196.434,60.069,13.286
2017-12-08T13:09:42,42.805,6.029,4330,1995,196.351,60.044,13.286
2017-12-08T13:12:42,42.805,6.029,4330,1995,196.433,60.069,13.286
2017-12-08T13:15:42,42.805,6.029,4330,1995,196.239,60.010,13.286
2017-12-08T13:18:42,42.805,6.029,4330,1995,196.199,59.997,13.286
2017-12-08T13:21:42,42.805,6.029,4330,1995,196.210,60.001,13.286
2017-12-08T13:24:42,42.805,6.029,4330,1995,196.425,60.066,13.286
2017-12-08T13:27:42,42.805,6.029,4330,1995,196.384,60.054,13.286
2017-12-08T13:30:42,42.805,6.029,4330,1995,196.321,60.035,13.286
2017-12-08T13:33:42,42.805,6.029,4330,1995,196.250,60.013,13.286
2017-12-08T13:36:42,42.805,6.029,4330,1995,196.207,60.000,13.286
2017-12-08T13:39:42,42.805,6.029,4330,1995,196.394,60.057,13.286
2017-12-08T13:42:42,42.805,6.029,4330,1995,196.320,60.034,13.286
2017-12-08T13:45:42,42.805,6.029,4330,1995,196.206,60.000,13.286
2017-12-08T13:48:42,42.805,6.029,4330,1995,196.340,60.041,13.286
2017-12-08T13:51:42,42.805,6.029,4330,1995,196.145,59.981,13.286
2017-12-08T13:54:42,42.805,6.029,4330,1995,196.250,60.013,13.286
2017-12-08T13:57:42,42.805,6.029,4330,1995,196.300,60.028,13.286
2017-12-08T14:00:42,42.805,6.029,4330,1995,196.242,60.010,13.286
2017-12-08T14:03:42,42.805,6.029,4330,1995,196.214,60.002,13.286
2017-12-08T14:06:42,42.805,6.029,4330,1995,196.337,60.039,13.286
2017-12-08T14:09:42,42.805,6.029,4330,1995,196.441,60.071,13.286
2017-12-08T14:12:42,42.805,6.029,4330,1995,196.467,60.079,13.286
2017-12-08T14:15:42,42.805,6.029,4330,1995,196.556,60.106,13.286
2017-12-08T14:18:42,42.805,6.029,4330,1995,196.616,60.125,13.286
2017-12-08T14:21:42,42.805,6.029,4330,1995,196.660,60.139,13.286
2017-12-08T14:24:42,42.805,6.029,4330,1995,196.650,60.135,13.285
2017-12-08T14:27:42,42.805,6.029,4330,1995,196.773,60.173,13.286
2017-12-08T14:30:42,42.805,6.029,4330,1995,196.858,60.199,13.285
2017-12-08T14:33:42,42.805,6.029,4330,1995,196.781,60.175,13.286
2017-12-08T14:36:42,42.805,6.029,4330,1995,196.706,60.152,13.286
2017-12-08T14:39:42,42.805,6.029,4330,1995,196.817,60.186,13.286
2017-12-08T14:42:42,42.805,6.029,4330,1995,196.904,60.213,13.286
2017-12-08T14:45:42,42.805,6.029,4330,1995,196.935,60.222,13.286
2017-12-08T14:48:42,42.805,6.029,4330,1995,196.942,60.225,13.286
2017-12-08T14:51:42,42.805,6.029,4330,1995,197.008,60.244,13.286
2017-12-08T14:54:42,42.805,6.029,4330,1995,196.957,60.229,13.286
2017-12-08T14:57:42,42.805,6.029,4330,1995,196.860,60.200,13.286
2017-12-08T15:00:42,42.805,6.029,4330,1995,197.022,60.249,13.286
2017-12-08T15:03:42,42.805,6.029,4330,1995,197.087,60.269,13.286
2017-12-08T15:06:42,42.805,6.029,4330,1995,197.027,60.251,13.286
2017-12-08T15:09:42,42.805,6.029,4330,1995,197.010,60.245,13.285
2017-12-08T15:12:42,42.805,6.029,4330,1995,196.979,60.236,13.286
2017-12-08T15:15:42,42.805,6.029,4330,1995,196.951,60.227,13.286
2017-12-08T15:18:42,42.805,6.029,4330,1995,196.906,60.213,13.286
2017-12-08T15:21:42,42.805,6.029,4330,1995,196.930,60.221,13.286
2017-12-08T15:24:42,42.805,6.029,4330,1995,196.975,60.235,13.286
2017-12-08T15:27:42,42.805,6.029,4330,1995,196.681,60.146,13.286
2017-12-08T15:30:42,42.805,6.029,4330,1995,196.711,60.154,13.286
2017-12-08T15:33:42,42.805,6.029,4330,1995,196.885,60.207,13.286
2017-12-08T15:36:42,42.805,6.029,4330,1995,196.799,60.181,13.286
2017-12-08T15:39:42,42.805,6.029,4330,1995,196.841,60.194,13.286
2017-12-08T15:42:42,42.805,6.029,4330,1995,196.739,60.163,13.286
2017-12-08T15:45:42,42.805,6.029,4330,1995,196.625,60.127,13.286
2017-12-08T15:48:42,42.805,6.029,4330,1995,196.571,60.111,13.286
2017-12-08T15:51:42,42.805,6.029,4330,1995,196.657,60.138,13.286
2017-12-08T15:54:42,42.805,6.029,4330,1995,196.562,60.109,13.286
2017-12-08T15:57:42,42.805,6.029,4330,1995,196.586,60.116,13.286
2017-12-08T16:00:42,42.805,6.029,4330,1995,196.578,60.113,13.286
2017-12-08T16:03:42,42.805,6.029,4330,1995,196.697,60.150,13.286
2017-12-08T16:06:42,42.805,6.029,4330,1995,196.646,60.134,13.286
2017-12-08T16:09:42,42.805,6.029,4330,1995,196.616,60.125,13.286
2017-12-08T16:12:42,42.805,6.029,4330,1995,196.614,60.124,13.286
2017-12-08T16:15:42,42.805,6.029,4330,1995,196.577,60.113,13.286
2017-12-08T16:18:42,42.805,6.029,4330,1995,196.646,60.135,13.286
2017-12-08T16:21:42,42.805,6.029,4330,1995,196.640,60.132,13.286
2017-12-08T16:24:42,42.805,6.029,4330,1995,196.623,60.127,13.286
2017-12-08T16:27:42,42.805,6.029,4330,1995,196.631,60.129,13.286
2017-12-08T16:30:42,42.805,6.029,4330,1995,196.640,60.132,13.286
2017-12-08T16:33:42,42.805,6.029,4330,1995,196.775,60.173,13.285
2017-12-08T16:36:42,42.805,6.029,4330,1995,196.831,60.190,13.285
2017-12-08T16:39:42,42.805,6.029,4330,1995,196.894,60.210,13.286
2017-12-08T16:42:42,42.805,6.029,4330,1995,196.870,60.202,13.286
2017-12-08T16:45:42,42.805,6.029,4330,1995,196.898,60.211,13.286
2017-12-08T16:48:42,42.805,6.029,4330,1995,196.954,60.228,13.286
2017-12-08T16:51:42,42.805,6.029,4330,1995,196.921,60.218,13.286
2017-12-08T16:54:42,42.805,6.029,4330,1995,196.978,60.235,13.286
2017-12-08T16:57:42,42.805,6.029,4330,1995,196.930,60.221,13.286
2017-12-08T17:00:42,42.805,6.029,4330,1995,197.088,60.269,13.286
2017-12-08T17:03:42,42.805,6.029,4330,1995,197.069,60.263,13.286
2017-12-08T17:06:42,42.805,6.029,4330,1995,197.098,60.272,13.286
2017-12-08T17:09:42,42.805,6.029,4330,1995,197.179,60.297,13.286
2017-12-08T17:12:42,42.805,6.029,4330,1995,197.207,60.305,13.285
2017-12-08T17:15:42,42.805,6.029,4330,1995,197.246,60.317,13.286
2017-12-08T17:18:42,42.805,6.029,4330,1995,197.342,60.346,13.285
2017-12-08T17:21:42,42.805,6.029,4330,1995,197.462,60.383,13.285
2017-12-08T17:24:42,42.805,6.029,4330,1995,197.480,60.389,13.285
2017-12-08T17:27:42,42.805,6.029,4330,1995,197.503,60.396,13.285
2017-12-08T17:30:42,42.805,6.029,4330,1995,197.564,60.414,13.286
2017-12-08T17:33:42,42.805,6.029,4330,1995,197.626,60.433,13.285
2017-12-08T17:36:42,42.805,6.029,4330,1995,197.679,60.449,13.285
2017-12-08T17:39:42,42.805,6.029,4330,1995,197.659,60.443,13.285
2017-12-08T17:42:42,42.805,6.029,4330,1995,197.651,60.441,13.285
2017-12-08T17:45:42,42.805,6.029,4330,1995,197.668,60.446,13.286
2017-12-08T17:48:42,42.805,6.029,4330,1995,197.642,60.438,13.285
2017-12-08T17:51:42,42.805,6.029,4330,1995,197.606,60.427,13.285
2017-12-08T17:54:42,42.805,6.029,4330,1995,197.653,60.441,13.285
2017-12-08T17:57:42,42.805,6.029,4330,1995,197.615,60.430,13.286
2017-12-08T18:00:42,42.805,6.029,4330,1995,197.585,60.421,13.285
2017-12-08T18:03:42,42.805,6.029,4330,1995,197.625,60.433,13.285
2017-12-08T18:06:42,42.805,6.029,4330,1995,197.633,60.435,13.285